TimeCDT,TemperatureF,Dew PointF,Humidity,Sea Level PressureIn,VisibilityMPH,Wind Direction,Wind SpeedMPH,Gust SpeedMPH,PrecipitationIn,Events,Conditions,WindDirDegrees,DateUTC
12:15 AM,30.2,19.4,64,30.32,10.0,Calm,Calm,-,N/A,,Clear,0,2013-03-27 05:15:00
12:35 AM,30.2,21.2,69,30.33,10.0,Calm,Calm,-,N/A,,Clear,0,2013-03-27 05:35:00
12:55 AM,28.4,19.4,69,30.33,10.0,Calm,Calm,-,N/A,,Clear,0,2013-03-27 05:55:00
1:15 AM,28.4,21.2,74,30.32,10.0,Calm,Calm,-,N/A,,Clear,0,2013-03-27 06:15:00
1:35 AM,30.2,23.0,75,30.32,10.0,SE,4.6,-,N/A,,Clear,130,2013-03-27 06:35:00
1:55 AM,32.0,23.0,69,30.32,10.0,ESE,5.8,-,N/A,,Clear,120,2013-03-27 06:55:00
2:15 AM,32.0,21.2,64,30.31,10.0,Calm,Calm,-,N/A,,Clear,0,2013-03-27 07:15:00
2:35 AM,30.2,21.2,69,30.31,10.0,Calm,Calm,-,N/A,,Clear,0,2013-03-27 07:35:00
2:55 AM,32.0,21.2,64,30.31,10.0,SE,4.6,-,N/A,,Clear,140,2013-03-27 07:55:00
3:15 AM,32.0,21.2,64,30.31,10.0,SE,3.5,-,N/A,,Clear,130,2013-03-27 08:15:00
3:35 AM,30.2,21.2,69,30.30,10.0,ESE,4.6,-,N/A,,Clear,120,2013-03-27 08:35:00
3:55 AM,30.2,21.2,69,30.30,10.0,ESE,5.8,-,N/A,,Clear,110,2013-03-27 08:55:00
4:15 AM,30.2,21.2,69,30.30,10.0,ESE,5.8,-,N/A,,Clear,120,2013-03-27 09:15:00
4:35 AM,28.4,21.2,74,30.30,10.0,ESE,4.6,-,N/A,,Clear,120,2013-03-27 09:35:00
4:55 AM,28.4,21.2,74,30.30,10.0,ESE,5.8,-,N/A,,Clear,120,2013-03-27 09:55:00
5:15 AM,30.2,21.2,69,30.30,10.0,SE,6.9,-,N/A,,Clear,130,2013-03-27 10:15:00
5:35 AM,30.2,21.2,69,30.30,10.0,SE,6.9,-,N/A,,Clear,130,2013-03-27 10:35:00
5:55 AM,30.2,21.2,69,30.30,10.0,SE,5.8,-,N/A,,Clear,130,2013-03-27 10:55:00
6:15 AM,28.4,21.2,74,30.31,10.0,ESE,3.5,-,N/A,,Clear,120,2013-03-27 11:15:00
6:35 AM,28.4,21.2,74,30.31,10.0,SE,4.6,-,N/A,,Clear,130,2013-03-27 11:35:00
6:45 AM,28.4,21.2,74,30.31,10.0,SE,5.8,-,N/A,,Scattered Clouds,130,2013-03-27 11:45:00
7:45 AM,30.2,23.0,75,30.32,10.0,SE,4.6,-,N/A,,Mostly Cloudy,140,2013-03-27 12:45:00
8:45 AM,32.0,23.0,69,30.34,10.0,SE,4.6,-,N/A,,Scattered Clouds,130,2013-03-27 13:45:00
9:45 AM,37.4,24.8,60,30.35,10.0,ESE,6.9,-,N/A,,Mostly Cloudy,120,2013-03-27 14:45:00
10:50 AM,42.8,24.8,49,30.34,10.0,SSE,9.2,-,N/A,,Mostly Cloudy,150,2013-03-27 15:50:00
11:55 AM,46.4,42.8,87,30.32,10.0,SE,5.8,-,N/A,,Scattered Clouds,140,2013-03-27 16:55:00
12:48 PM,50.0,23.0,35,30.29,10.0,SE,8.1,-,N/A,,Scattered Clouds,130,2013-03-27 17:48:00
1:50 PM,53.6,23.0,30,30.27,10.0,SE,5.8,-,N/A,,Mostly Cloudy,140,2013-03-27 18:50:00
2:55 PM,55.4,23.0,29,30.25,10.0,ESE,6.9,16.1,N/A,,Mostly Cloudy,110,2013-03-27 19:55:00
3:45 PM,55.4,23.0,29,30.22,10.0,ESE,12.7,20.7,N/A,,Overcast,110,2013-03-27 20:45:00
4:45 PM,55.4,24.8,31,30.20,10.0,ESE,13.8,19.6,N/A,,Overcast,110,2013-03-27 21:45:00
5:45 PM,55.4,24.8,31,30.20,10.0,ESE,11.5,20.7,N/A,,Overcast,110,2013-03-27 22:45:00
6:45 PM,53.6,24.8,33,30.18,10.0,ESE,11.5,23.0,N/A,,Mostly Cloudy,110,2013-03-27 23:45:00
7:45 PM,50.0,26.6,40,30.20,10.0,ESE,6.9,-,N/A,,Mostly Cloudy,110,2013-03-28 00:45:00
8:45 PM,50.0,24.8,37,30.23,10.0,ESE,8.1,-,N/A,,Mostly Cloudy,120,2013-03-28 01:45:00
9:15 PM,48.2,26.6,43,30.24,10.0,ESE,5.8,-,N/A,,Overcast,120,2013-03-28 02:15:00
9:35 PM,48.2,26.6,43,30.25,10.0,ESE,8.1,-,N/A,,Overcast,120,2013-03-28 02:35:00
9:55 PM,48.2,26.6,43,30.25,10.0,ESE,8.1,-,N/A,,Overcast,120,2013-03-28 02:55:00
10:15 PM,46.4,26.6,46,30.25,10.0,SE,9.2,-,N/A,,Overcast,130,2013-03-28 03:15:00
10:35 PM,48.2,26.6,43,30.25,10.0,ESE,11.5,-,N/A,,Overcast,120,2013-03-28 03:35:00
10:55 PM,46.4,26.6,46,30.26,10.0,ESE,10.4,-,N/A,,Overcast,120,2013-03-28 03:55:00
11:15 PM,46.4,26.6,46,30.26,10.0,ESE,10.4,-,N/A,,Overcast,120,2013-03-28 04:15:00
11:35 PM,46.4,26.6,46,30.26,10.0,SE,10.4,-,N/A,,Overcast,130,2013-03-28 04:35:00
11:55 PM,46.4,28.4,50,30.25,10.0,SE,10.4,-,N/A,,Overcast,130,2013-03-28 04:55:00